TimeCST,TemperatureF,Dew PointF,Humidity,Sea Level PressureIn,VisibilityMPH,Wind Direction,Wind SpeedMPH,Gust SpeedMPH,PrecipitationIn,Events,Conditions,WindDirDegrees,DateUTC
12:15 AM,42.3,35.1,76,30.20,10.0,South,5.8,-,N/A,,Mostly Cloudy,190,2013-01-09 06:15:00
12:35 AM,42.4,35.2,76,30.21,10.0,SSW,4.6,-,N/A,,Overcast,200,2013-01-09 06:35:00
12:55 AM,42.8,36.1,77,30.21,10.0,South,6.9,-,N/A,,Drizzle,170,2013-01-09 06:55:00
1:15 AM,44.6,37.6,76,30.23,7.0,SSW,15.0,19.6,N/A,,Drizzle,210,2013-01-09 07:15:00
1:35 AM,45.0,39.0,80,30.23,7.0,SSW,10.4,-,0.01,Rain,Rain,210,2013-01-09 07:35:00
1:55 AM,44.6,39.0,81,30.24,7.0,SW,9.2,-,0.02,Rain,Light Rain,220,2013-01-09 07:55:00
2:15 AM,43.9,39.2,84,30.25,7.0,SSW,6.9,-,0.02,Rain,Rain,210,2013-01-09 08:15:00
2:35 AM,43.2,39.4,86,30.25,7.0,SSW,5.8,-,0.06,Rain,Rain,200,2013-01-09 08:35:00
2:55 AM,42.3,39.2,89,30.26,7.0,SSW,6.9,-,0.08,Rain,Rain,200,2013-01-09 08:55:00
3:15 AM,43.2,40.1,89,30.26,7.0,SSW,10.4,-,N/A,Rain,Light Rain,200,2013-01-09 09:15:00
3:35 AM,43.3,40.6,90,30.26,7.0,SW,9.2,-,0.01,Rain,Light Rain,220,2013-01-09 09:35:00
3:55 AM,43.7,41.2,91,30.26,7.0,SW,10.4,-,0.01,,Overcast,220,2013-01-09 09:55:00
4:15 AM,44.6,41.9,90,30.27,10.0,SW,10.4,-,N/A,,Overcast,230,2013-01-09 10:15:00
4:35 AM,44.6,42.1,91,30.27,7.0,SW,8.1,-,N/A,Rain,Light Rain,230,2013-01-09 10:35:00
4:55 AM,44.6,42.1,91,30.27,7.0,SSW,8.1,-,N/A,Rain,Light Rain,210,2013-01-09 10:55:00
5:15 AM,45.0,42.4,91,30.27,10.0,SW,8.1,-,0.01,Rain,Rain,220,2013-01-09 11:15:00
5:35 AM,45.1,42.6,91,30.28,10.0,SSW,6.9,-,0.01,,Overcast,210,2013-01-09 11:35:00
5:55 AM,44.6,42.8,93,30.28,10.0,SSW,6.9,-,N/A,,Overcast,200,2013-01-09 11:55:00
6:15 AM,44.8,42.6,92,30.30,10.0,SW,5.8,-,N/A,,Overcast,230,2013-01-09 12:15:00
6:35 AM,44.1,41.9,92,30.30,7.0,SSW,4.6,-,N/A,,Overcast,200,2013-01-09 12:35:00
6:55 AM,43.3,41.2,92,30.32,7.0,WSW,4.6,-,N/A,,Mostly Cloudy,240,2013-01-09 12:55:00
7:15 AM,42.6,40.6,93,30.33,4.0,SW,4.6,-,N/A,,Clear,230,2013-01-09 13:15:00
7:35 AM,41.2,39.4,93,30.34,1.8,SW,5.8,-,N/A,,Mist,230,2013-01-09 13:35:00
7:55 AM,41.9,40.3,94,30.35,1.8,SW,4.6,-,N/A,,Mist,230,2013-01-09 13:55:00
8:15 AM,42.1,40.5,94,30.36,1.8,WSW,3.5,-,N/A,,Mist,250,2013-01-09 14:15:00
8:35 AM,43.9,42.3,94,30.36,1.2,SSW,3.5,-,N/A,,Mist,200,2013-01-09 14:35:00
8:55 AM,46.4,44.6,93,30.38,4.0,SW,4.6,-,N/A,,Clear,220,2013-01-09 14:55:00
9:15 AM,47.3,44.8,91,30.38,7.0,SW,5.8,-,N/A,,Clear,230,2013-01-09 15:15:00
9:35 AM,48.2,45.0,89,30.39,7.0,WSW,4.6,-,N/A,,Clear,240,2013-01-09 15:35:00
9:55 AM,48.7,44.6,86,30.41,10.0,WSW,5.8,-,N/A,,Clear,250,2013-01-09 15:55:00
10:15 AM,49.3,44.4,83,30.40,10.0,WSW,3.5,-,N/A,,Clear,250,2013-01-09 16:15:00
10:35 AM,50.0,42.6,76,30.40,10.0,West,5.8,-,N/A,,Clear,280,2013-01-09 16:35:00
10:55 AM,50.5,42.8,75,30.40,10.0,West,3.5,-,N/A,,Unknown,280,2013-01-09 16:55:00
11:15 AM,51.4,41.4,68,30.40,10.0,NNW,4.6,-,N/A,,Unknown,330,2013-01-09 17:15:00
11:35 AM,51.8,42.8,71,30.39,10.0,NNW,6.9,-,N/A,,Clear,330,2013-01-09 17:35:00
11:55 AM,52.5,41.5,66,30.39,10.0,NNW,5.8,-,N/A,,Clear,330,2013-01-09 17:55:00
12:15 PM,53.1,41.4,64,30.39,10.0,NW,9.2,-,N/A,,Unknown,310,2013-01-09 18:15:00
12:35 PM,52.9,40.3,62,30.38,10.0,NNW,9.2,-,N/A,,Clear,340,2013-01-09 18:35:00
12:55 PM,52.9,40.1,62,30.39,10.0,NNW,5.8,-,N/A,,Clear,340,2013-01-09 18:55:00
1:15 PM,53.2,39.4,59,30.39,10.0,NW,4.6,-,N/A,,Clear,320,2013-01-09 19:15:00
1:35 PM,53.6,38.5,57,30.39,10.0,Calm,Calm,-,N/A,,Unknown,0,2013-01-09 19:35:00
1:55 PM,54.5,37.8,53,30.39,10.0,Calm,Calm,-,N/A,,Unknown,0,2013-01-09 19:55:00
2:15 PM,55.0,39.6,56,30.39,10.0,Calm,Calm,-,N/A,,Unknown,0,2013-01-09 20:15:00
2:35 PM,54.9,37.4,52,30.40,10.0,NW,10.4,16.1,N/A,,Clear,310,2013-01-09 20:35:00
2:55 PM,54.5,37.8,53,30.41,10.0,NW,6.9,-,N/A,,Clear,310,2013-01-09 20:55:00
3:15 PM,53.6,39.0,58,30.41,10.0,NW,3.5,-,N/A,,Clear,320,2013-01-09 21:15:00
3:35 PM,53.1,40.6,63,30.41,10.0,North,4.6,-,N/A,,Clear,350,2013-01-09 21:35:00
3:55 PM,52.3,39.0,61,30.42,10.0,NNW,3.5,-,N/A,,Clear,340,2013-01-09 21:55:00
4:15 PM,51.3,38.8,63,30.43,10.0,Calm,Calm,-,N/A,,Clear,0,2013-01-09 22:15:00
4:35 PM,50.5,37.6,61,30.43,10.0,Calm,Calm,-,N/A,,Clear,0,2013-01-09 22:35:00
4:55 PM,49.5,38.3,65,30.42,10.0,Calm,Calm,-,N/A,,Clear,0,2013-01-09 22:55:00
5:15 PM,47.5,39.7,75,30.43,10.0,Calm,Calm,-,N/A,,Clear,0,2013-01-09 23:15:00
5:35 PM,44.8,38.8,80,30.43,10.0,Calm,Calm,-,N/A,,Clear,0,2013-01-09 23:35:00
5:55 PM,44.6,38.7,80,30.44,10.0,Calm,Calm,-,N/A,,Clear,0,2013-01-09 23:55:00
6:15 PM,44.4,39.2,82,30.46,10.0,Calm,Calm,-,N/A,,Clear,0,2013-01-10 00:15:00
6:35 PM,45.7,36.3,70,30.46,10.0,NNE,3.5,-,N/A,,Clear,20,2013-01-10 00:35:00
6:55 PM,44.2,36.1,73,30.47,10.0,NNE,4.6,-,N/A,,Clear,30,2013-01-10 00:55:00
7:15 PM,45.5,34.0,64,30.47,10.0,NE,3.5,-,N/A,,Clear,40,2013-01-10 01:15:00
7:35 PM,45.9,33.1,61,30.47,10.0,NE,3.5,-,N/A,,Clear,50,2013-01-10 01:35:00
7:55 PM,44.8,33.3,64,30.47,10.0,NE,3.5,-,N/A,,Clear,50,2013-01-10 01:55:00
8:15 PM,44.1,32.9,65,30.47,10.0,NE,3.5,-,N/A,,Clear,40,2013-01-10 02:15:00
8:35 PM,43.7,32.9,66,30.46,10.0,ENE,4.6,-,N/A,,Clear,60,2013-01-10 02:35:00
8:55 PM,43.7,32.9,66,30.47,10.0,NE,3.5,-,N/A,,Clear,40,2013-01-10 02:55:00
9:15 PM,43.2,32.9,67,30.48,10.0,ENE,3.5,-,N/A,,Clear,60,2013-01-10 03:15:00
9:35 PM,43.3,33.1,67,30.48,10.0,NNE,3.5,-,N/A,,Clear,30,2013-01-10 03:35:00
9:55 PM,42.8,33.8,70,30.48,10.0,NE,3.5,-,N/A,,Clear,50,2013-01-10 03:55:00
10:15 PM,41.9,33.6,72,30.48,10.0,ENE,4.6,-,N/A,,Clear,60,2013-01-10 04:15:00
10:35 PM,42.4,33.8,71,30.48,10.0,ENE,4.6,-,N/A,,Clear,60,2013-01-10 04:35:00
10:55 PM,42.4,33.8,71,30.47,10.0,NE,4.6,-,N/A,,Clear,50,2013-01-10 04:55:00
11:15 PM,42.3,34.0,72,30.48,10.0,ENE,4.6,-,N/A,,Clear,60,2013-01-10 05:15:00
11:35 PM,42.1,34.0,73,30.47,10.0,ENE,4.6,-,N/A,,Clear,60,2013-01-10 05:35:00
11:55 PM,41.4,34.2,76,30.47,10.0,ENE,3.5,-,N/A,,Clear,60,2013-01-10 05:55:00